Tracking 30995 objects as of 6-Jul-2025
HD Live streaming from Space Station
objects crossing your sky now

SL-3 DEB

Track SL-3 DEB now!
10-day predictions


NORAD ID: 14632
Int'l Code: 1977-002E
Perigee: 860.1 km
Apogee: 936.6 km
Inclination: 81.3 °
Period: 102.8 minutes
Semi major axis: 7269 km
RCS: 0.006 m2 (small)
Launch date: January 6, 1977
Source: Commonwealth of Independent States (former USSR) (CIS)
Launch site: PLESETSK MISSILE AND SPACE COMPLEX (PKMTR)

Note: This is SATELLITE DEBRIS
Your satellite tracking list
STARLINK-1224
Track 1 satellite(s)




NASA's NSSDC Master Catalog

Two Line Element Set (TLE):
1 14632U 77002E   25187.34969053  .00000039  00000-0  17671-4 0  9992
2 14632  81.2761 153.0612 0052599 169.0862 311.8335 14.00745486300054
Source of the keplerian elements: AFSPC